Location: Dammartin
(48.9032°N, 1.6195°E)
Time: 08:47:55
(UTC+00:00)

BlueWalker 3 - Visible Passes

Search period start: 28 May 2023 00:00
Search period end: 07 June 2023 00:00
Orbit: 495 x 512 km, 53.2° (Epoch: 27 May)

Date Brightness Start Highest point End Pass type
(mag) Time Alt. Az. Time Alt. Az. Time Alt. Az.
28 May 2.9 01:24:25 10° WNW 01:28:12 49° N 01:32:01 10° E visible
28 May 1.9 03:03:00 10° WNW 03:06:53 62° SSW 03:10:45 10° SE visible
28 May 1.8 21:46:20 10° SW 21:50:10 72° SSE 21:54:03 10° ENE visible
28 May 3.0 23:25:09 10° W 23:28:54 47° N 23:32:41 10° ENE visible
29 May 2.9 01:04:06 10° WNW 01:07:53 50° NNE 01:11:42 10° E visible
29 May 1.9 02:42:41 10° WNW 02:46:33 61° SSW 02:50:24 10° SE visible
29 May 1.8 21:26:01 10° SW 21:29:51 74° SSE 21:33:43 10° ENE visible
29 May 3.0 23:04:49 10° W 23:08:34 46° N 23:12:21 10° ENE visible
30 May 2.9 00:43:46 10° WNW 00:47:34 50° NNE 00:51:23 10° E visible
30 May 1.9 02:22:21 10° WNW 02:26:13 60° SSW 02:30:03 10° SE visible
30 May 1.8 21:05:40 10° SW 21:09:30 75° SSE 21:13:23 10° ENE visible
30 May 3.0 22:44:30 10° W 22:48:14 46° N 22:52:01 10° ENE visible
31 May 2.8 00:23:26 10° WNW 00:27:14 50° NNE 00:31:03 10° E visible
31 May 1.9 02:02:02 10° WNW 02:05:52 58° SSW 02:09:42 10° SE visible
31 May 1.8 20:45:20 10° WSW 20:49:09 77° SSE 20:53:02 10° ENE visible
31 May 3.1 22:24:10 10° W 22:27:54 46° N 22:31:40 10° ENE visible
01 Jun 2.8 00:03:06 10° WNW 00:06:54 51° NNE 00:10:43 10° E visible
01 Jun 1.9 01:41:42 10° WNW 01:45:31 57° SSW 01:49:20 10° SE visible
01 Jun 1.9 20:24:59 10° WSW 20:28:49 78° SSE 20:32:41 10° ENE visible
01 Jun 3.1 22:03:50 10° W 22:07:34 45° N 22:11:19 10° ENE visible
01 Jun 2.8 23:42:45 10° WNW 23:46:33 51° NNE 23:50:22 10° E visible
02 Jun 2.0 01:21:21 10° WNW 01:25:09 56° SSW 01:28:59 10° SE visible
02 Jun 3.9 03:01:40 10° WSW 03:03:00 11° SW 03:04:21 10° SSW visible
02 Jun 3.1 21:43:29 10° W 21:47:13 45° N 21:50:58 10° ENE visible
02 Jun 2.7 23:22:24 10° WNW 23:26:12 52° NNE 23:30:01 10° E visible
03 Jun 2.0 01:01:00 10° WNW 01:04:48 54° SSW 01:07:09 21° SE visible
03 Jun 4.1 02:41:27 10° WSW 02:41:38 10° WSW 02:41:38 10° WSW visible
03 Jun 3.1 21:23:08 10° W 21:26:52 45° N 21:30:36 10° ENE visible
03 Jun 2.7 23:02:03 10° WNW 23:05:51 52° NNE 23:09:39 10° E visible
04 Jun 2.0 00:40:39 10° WNW 00:44:26 53° SSW 00:45:20 42° SSE visible
04 Jun 3.1 21:02:47 10° W 21:06:30 45° N 21:10:15 10° ENE visible
04 Jun 2.7 22:41:41 10° WNW 22:45:29 53° NNE 22:49:18 10° E visible
05 Jun 2.0 00:20:17 10° WNW 00:24:04 52° SW 00:24:26 49° S visible
05 Jun 3.1 20:42:25 10° W 20:46:08 44° N 20:49:52 10° ENE visible
05 Jun 2.7 22:21:18 10° WNW 22:25:07 53° NNE 22:28:56 10° E visible
05 Jun 2.0 23:59:55 10° WNW 00:03:41 50° SW 00:03:53 50° SSW visible
06 Jun 2.6 22:00:56 10° WNW 22:04:44 54° NNE 22:08:33 10° E visible
06 Jun 2.1 23:39:33 10° WNW 23:43:17 49° SW 23:43:33 48° SSW visible
